TimeAKST,TemperatureF,Dew PointF,Humidity,Sea Level PressureIn,VisibilityMPH,Wind Direction,Wind SpeedMPH,Gust SpeedMPH,PrecipitationIn,Events,Conditions,WindDirDegrees,DateUTC
12:55 AM,-10.3,-16.6,74,29.64,10.0,Calm,Calm,-,N/A,,Clear,0,2012-12-06 09:55:00
1:55 AM,-5.6,-11.4,76,29.64,10.0,East,4.6,-,N/A,,Mostly Cloudy,100,2012-12-06 10:55:00
2:55 AM,-5.6,-11.6,75,29.65,10.0,East,4.6,-,N/A,,Partly Cloudy,100,2012-12-06 11:55:00
3:55 AM,-2.9,-9.2,74,29.65,10.0,ESE,3.5,-,N/A,,Overcast,120,2012-12-06 12:55:00
4:55 AM,-1.1,-8.0,73,29.65,10.0,SE,4.6,-,N/A,,Overcast,130,2012-12-06 13:55:00
5:55 AM,-0.2,-7.4,72,29.66,10.0,SE,5.8,-,N/A,,Overcast,140,2012-12-06 14:55:00
6:55 AM,1.4,-6.0,71,29.68,10.0,Calm,Calm,-,N/A,,Overcast,0,2012-12-06 15:55:00
7:55 AM,-0.2,-6.7,74,29.70,10.0,Calm,Calm,-,N/A,,Scattered Clouds,0,2012-12-06 16:55:00
8:55 AM,0.1,-6.7,73,29.70,10.0,Calm,Calm,-,N/A,,Mostly Cloudy,0,2012-12-06 17:55:00
9:55 AM,0.5,-7.1,70,29.73,10.0,Calm,Calm,-,N/A,,Clear,0,2012-12-06 18:55:00
10:55 AM,-1.3,-8.0,73,29.75,10.0,Calm,Calm,-,N/A,,Scattered Clouds,0,2012-12-06 19:55:00
11:55 AM,-0.8,-8.1,71,29.77,10.0,Calm,Calm,-,N/A,,Partly Cloudy,0,2012-12-06 20:55:00
12:55 PM,0.5,-6.7,72,29.78,10.0,Calm,Calm,-,N/A,,Clear,0,2012-12-06 21:55:00
1:55 PM,2.7,-5.6,68,29.79,10.0,Calm,Calm,-,N/A,,Clear,0,2012-12-06 22:55:00
2:55 PM,2.5,-5.4,70,29.80,10.0,Calm,Calm,-,N/A,,Clear,0,2012-12-06 23:55:00
3:55 PM,3.2,-4.5,70,29.81,10.0,Calm,Calm,-,N/A,,Partly Cloudy,0,2012-12-07 00:55:00
4:55 PM,-0.8,-7.1,75,29.82,10.0,Calm,Calm,-,N/A,,Clear,0,2012-12-07 01:55:00
5:55 PM,-7.4,-13.0,77,29.83,10.0,Calm,Calm,-,N/A,,Clear,0,2012-12-07 02:55:00
6:55 PM,-5.3,-10.3,79,29.84,10.0,Calm,Calm,-,N/A,,Clear,0,2012-12-07 03:55:00
7:55 PM,-7.2,-12.5,78,29.86,10.0,Calm,Calm,-,N/A,,Clear,0,2012-12-07 04:55:00
8:55 PM,-4.2,-9.2,79,29.88,10.0,Calm,Calm,-,N/A,,Clear,0,2012-12-07 05:55:00
9:55 PM,-6.2,-11.2,79,29.88,10.0,Calm,Calm,-,N/A,,Clear,0,2012-12-07 06:55:00
10:55 PM,-8.7,-13.9,78,29.89,10.0,Calm,Calm,-,N/A,,Clear,0,2012-12-07 07:55:00
11:55 PM,-9.0,-14.6,76,29.91,10.0,Calm,Calm,-,N/A,,Clear,0,2012-12-07 08:55:00